FW1843 Weather Reports


time (UTC)temp
C
wind
direction
speed
KPH
gust
KPH
rain 1hr
cm
rain 24hr
cm
rain mn
cm
humidity
%
barometer
mb
20260504234523 10 360 6.4 20.9 0.00 0.00 0.00 40 1015.4
20260504233024 10 360 8.0 20.9 0.00 0.00 0.00 42 1015.4
20260504231521 10 57 9.7 25.7 0.00 0.00 0.00 42 1015.2
20260504230018 9 360 12.9 19.3 0.00 0.00 0.00 51 1015.1
20260504224518 8 15 6.4 17.7 0.00 0.00 0.00 50 1015.0
20260504223016 8 360 4.8 16.1 0.00 0.00 0.00 52 1014.8
20260504221517 8 114 6.4 17.7 0.00 0.00 0.00 51 1015.0
20260504220017 8 348 4.8 12.9 0.00 0.00 0.00 56 1014.8
20260504214515 8 360 6.4 9.7 0.00 0.00 0.00 56 1014.7
20260504213031 8 360 6.4 9.7 0.00 0.00 0.00 57 1014.6
20260504211527 8 340 4.8 9.7 0.00 0.00 0.00 58 1014.7
20260504210022 8 340 8.0 14.5 0.00 0.00 0.00 56 1014.7
20260504204521 8 340 9.7 19.3 0.00 0.00 0.00 56 1014.6
20260504203021 8 360 12.9 25.7 0.00 0.00 0.00 55 1014.6
20260504201523 8 313 14.5 22.5 0.00 0.00 0.00 56 1014.5
20260504201519 8 360 14.5 22.5 0.00 0.00 0.00 56 1014.5
20260504200019 8 360 12.9 22.5 0.00 0.00 0.00 55 1014.5
20260504194521 8 323 9.7 16.1 0.00 0.00 0.00 56 1014.5
20260504193018 8 360 14.5 22.5 0.00 0.00 0.00 54 1014.4
20260504191514 8 360 4.8 14.5 0.00 0.00 0.00 55 1014.6
20260504190018 8 360 3.2 9.7 0.00 0.00 0.00 55 1014.6
20260504184526 8 320 4.8 16.1 0.00 0.00 0.00 56 1014.5
20260504183011 8 360 6.4 17.7 0.00 0.00 0.00 56 1014.7
20260504181511 8 360 4.8 12.9 0.00 0.00 0.00 56 1014.5
20260504180008 8 360 6.4 12.9 0.00 0.00 0.00 58 1014.6
20260504174507 8 360 4.8 12.9 0.00 0.00 0.00 59 1014.5
20260504173012 7 157 1.6 14.5 0.00 0.00 0.00 60 1014.4
20260504171505 7 360 4.8 12.9 0.00 0.00 0.00 62 1014.4
20260504081525 7 360 38.6 53.1 0.00 0.00 0.00 49 1011.5
20260504060108 11 360 24.1 29.0 0.00 0.00 0.00 42 1008.2
20260504044532 13 360 4.8 14.5 0.00 0.00 0.00 34 1007.1
20260504043025 13 360 4.8 12.9 0.00 0.00 0.00 35 1007.0
20260504041524 15 360 6.4 8.0 0.00 0.00 0.00 27 1007.0
20260504040026 15 360 0.0 3.2 0.00 0.00 0.00 27 1006.9
20260504034522 15 94 0.0 4.8 0.00 0.00 0.00 27 1006.8
20260504033021 15 360 0.0 4.8 0.00 0.00 0.00 27 1006.6
20260504031521 16 67 1.6 6.4 0.00 0.00 0.00 25 1006.5
20260504030020 17 360 0.0 3.2 0.00 0.00 0.00 24 1006.4
20260504024519 17 360 1.6 8.0 0.00 0.00 0.00 23 1006.3
20260504023017 18 360 1.6 8.0 0.00 0.00 0.00 24 1006.2
20260504021519 18 360 3.2 11.3 0.00 0.00 0.00 23 1006.3
20260504020016 18 360 1.6 6.4 0.00 0.00 0.00 26 1006.3
20260504014510 19 360 1.6 6.4 0.00 0.00 0.00 26 1006.4
20260504013014 19 55 1.6 12.9 0.00 0.00 0.00 23 1006.4
20260504011508 20 360 14.5 20.9 0.00 0.00 0.00 21 1006.5
20260504010008 20 360 16.1 20.9 0.00 0.00 0.00 18 1006.5
20260504004505 21 360 9.7 17.7 0.00 0.00 0.00 18 1006.7
20260504003001 21 360 12.9 25.7 0.00 0.00 0.00 18 1006.8
20260504001559 21 360 19.3 24.1 0.00 0.00 0.00 18 1006.8
20260504000137 21 291 24.1 30.6 0.00 0.00 0.00 19 1006.9